Weather History for Richmond Hanover County, VA

Change the Weather History Date:

Saturday, December 29, 2012

  Actual Average Record
Temperature  
Mean Temperature 40 °F -  
Max Temperature 45 °F 47 °F 77 °F (1984)
Min Temperature 35 °F 27 °F 11 °F (1952)
Degree Days  
Heating Degree Days 25    
Moisture  
Dew Point 35 °F    
Average Humidity 89    
Maximum Humidity 100    
Minimum Humidity 60    
Precipitation  
Precipitation 0.14 in - - ()
Sea Level Pressure  
Sea Level Pressure 29.78 in    
Wind  
Wind Speed 3 mph (WNW)    
Max Wind Speed 10 mph    
Max Gust Speed -    
Visibility 7 miles    
Events Rain    
Averages and records for this station are not official NWS values.
T = Trace of Precipitation, MM = Missing Value Source: NWS Daily Summary

Daily Weather History Graph

Daily Weather History Graph

Search for Another Location

Airport:

Trip Planner

Search our weather history database for the weather conditions in past years. The results will help you decide how hot, cold, wet, or windy it might be!

Date:

Astronomy

Dec. 29, 2012 Rise Set
Actual Time 7:24 AM EST 4:59 PM EST
Civil Twilight 6:55 AM EST 5:29 PM EST
Nautical Twilight 6:22 AM EST 6:01 PM EST
Astronomical Twilight 5:50 AM EST 6:33 PM EST
Moon 6:28 PM EST (12/29) 7:58 AM EST (12/29)
Length of Visible Light 10h 33m
Length of Day
9h 35m
Full, 98% of the Moon is Illuminated
Dec 29
Full
Jan 4
Last Quarter
Jan 11
New
Jan 18
First Quarter
Jan 26
Full

Hourly Weather History & Observations

Time (EST) Temp. Windchill Dew Point Humidity Pressure Visibility Wind Dir Wind Speed Gust Speed Precip Events Conditions
12:54 AM 35.1 °F - 34.0 °F 96% 30.03 in 9.0 mi Calm Calm - N/A   Scattered Clouds
1:54 AM 35.1 °F - 33.1 °F 92% 30.01 in 10.0 mi Calm Calm - N/A   Scattered Clouds
2:54 AM 36.0 °F - 34.0 °F 93% 30.02 in 10.0 mi Calm Calm - N/A   Overcast
3:54 AM 37.0 °F - 33.1 °F 86% 29.98 in 9.0 mi Calm Calm - N/A   Overcast
4:54 AM 36.0 °F - 35.1 °F 97% 29.94 in 9.0 mi Calm Calm - 0.00 in   Overcast
5:54 AM 36.0 °F 33.3 °F 34.0 °F 93% 29.85 in 9.0 mi East 3.5 mph - 0.00 in   Scattered Clouds
6:54 AM 36.0 °F 33.3 °F 34.0 °F 93% 29.83 in 9.0 mi East 3.5 mph - N/A   Overcast
7:54 AM 37.0 °F - 35.1 °F 93% 29.79 in 9.0 mi Calm Calm - N/A   Overcast
8:38 AM 37.4 °F - 35.6 °F 93% 29.77 in 2.0 mi Calm Calm - 0.00 in Rain Light Rain
8:52 AM 37.4 °F - 37.4 °F 100% 29.78 in 2.0 mi Calm Calm - 0.01 in Rain Light Rain
8:53 AM 37.0 °F - 37.0 °F 100% 29.78 in 2.0 mi Calm Calm - 0.01 in Rain Light Rain
9:02 AM 37.4 °F - 37.4 °F 100% 29.78 in 1.5 mi Calm Calm - 0.03 in Rain Rain
9:34 AM 37.4 °F 32.1 °F 37.4 °F 100% 29.79 in 1.2 mi WNW 6.9 mph - 0.07 in Rain Light Rain
9:54 AM 37.0 °F 31.0 °F 37.0 °F 100% 29.79 in 1.5 mi WNW 8.1 mph - 0.10 in   Overcast
10:42 AM 37.4 °F 32.8 °F 37.4 °F 100% 29.76 in 2.5 mi NW 5.8 mph - 0.02 in Rain Light Rain
10:54 AM 37.0 °F 32.4 °F 37.0 °F 100% 29.75 in 2.0 mi NW 5.8 mph - 0.03 in   Overcast
11:33 AM 37.4 °F - 37.4 °F 100% 29.70 in 4.0 mi Calm Calm - 0.00 in   Overcast
11:54 AM 37.9 °F 34.4 °F 37.9 °F 100% 29.69 in 5.0 mi NW 4.6 mph - 0.00 in   Overcast
12:54 PM 39.0 °F 34.8 °F 39.0 °F 100% 29.65 in 7.0 mi West 5.8 mph - N/A   Overcast
1:54 PM 41.0 °F 38.0 °F 39.9 °F 96% 29.61 in 9.0 mi West 4.6 mph - N/A   Overcast
2:18 PM 42.8 °F 38.6 °F 41.0 °F 93% 29.61 in 10.0 mi WNW 6.9 mph - N/A   Overcast
2:54 PM 43.0 °F 38.2 °F 39.0 °F 86% 29.61 in 10.0 mi West 8.1 mph - N/A   Scattered Clouds
3:54 PM 45.0 °F 41.2 °F 39.0 °F 80% 29.62 in 10.0 mi WSW 6.9 mph - N/A   Clear
4:54 PM 43.0 °F 41.3 °F 37.9 °F 82% 29.63 in 10.0 mi West 3.5 mph - N/A   Clear
6:54 PM 39.9 °F 35.1 °F 37.0 °F 89% 29.69 in 9.0 mi West 6.9 mph - N/A   Clear
7:54 PM 41.0 °F 35.8 °F 32.0 °F 70% 29.73 in 10.0 mi WNW 8.1 mph - N/A   Clear
8:54 PM 42.1 °F 37.1 °F 30.0 °F 62% 29.76 in 10.0 mi West 8.1 mph - N/A   Scattered Clouds
9:54 PM 39.9 °F - 28.0 °F 63% 29.80 in 10.0 mi Calm Calm - N/A   Partly Cloudy
10:54 PM 39.9 °F 33.4 °F 28.0 °F 63% 29.83 in 10.0 mi WNW 10.4 mph - N/A   Mostly Cloudy
11:54 PM 39.0 °F 32.8 °F 26.1 °F 60% 29.86 in 10.0 mi WNW 9.2 mph - N/A   Clear